Content
SEND FEEDBACK

Daily
Averages
Monthly
Summary
United States of America

IRWIN, OHIO


Home > North America > United States > Ohio
Elevation: 1003 feet     Latitude: 40 07N     Longitude: 083 28W

WEATHER
 
SELECT A DAY
Number of Records: 118,318;   Date Range: 1/13/10 - 10/20/14
 
SHARE

PRINT THIS DATA

[ ← Previous Day ]
WEATHER ALMANAC - JANUARY 31, 2013
[ Next Day → ]
[ °C ]   °F
Weather ElementAverageHighLow
Temperature24.4 °F32 °F (12:34 am)16.5 °F (11:54 pm)
Dewpoint16.4 °F26.6 °F (12:34 am)7.9 °F (11:54 pm)
Humidity71.9 %85 % (2:54 pm)59 % (11:14 am)
Barometer29.76 in29.92 in (11:34 pm)29.46 in (12:34 am)
Wind Speed11.1 mph34.5 mph (2:14 am)
Wind Gust47.2 mph (3:34 am)
Weather ElementAverage
Visibility6.9 mi
Wind DirectionSE (136.2 °)

Weather ElementTotal
Precipitation0.03 in
Heating Degree Days40.8 (Base 65)
Averaged from 71 records on January 31, 2013
WEATHER CONDITIONS BREAKOUT
WIND DIRECTION BREAKOUT
WEATHER BY HOUR - JANUARY 31, 2013
[ °C ]   °F
Local TimeTemperatureDewpointHumidityBarometerVisibilityWind DirectionWind SpeedGust SpeedPrecipitationEventsConditions
12:34 AM32.0 °F26.6 °F80 %29.46 in10.0 miWNW (290°)23.0 mph38.0 mphOvercast
12:54 AM32.0 °F26.1 °F79 %29.48 in10.0 miWest (280°)25.3 mph35.7 mphOvercast
1:14 AM31.6 °F24.6 °F75 %29.49 in10.0 miWest (280°)29.9 mph46.0 mph0.01 inOvercast
1:34 AM31.6 °F23.0 °F70 %29.51 in10.0 miWest (280°)28.8 mph42.6 mph0.01 inOvercast
1:54 AM31.1 °F23.9 °F75 %29.52 in10.0 miWest (280°)21.9 mph38.0 mph0.01 inOvercast
2:14 AM30.6 °F23.2 °F74 %29.53 in10.0 miWest (280°)34.5 mph43.7 mphOvercast
2:34 AM30.2 °F23.2 °F75 %29.55 in10.0 miWest (280°)28.8 mph38.0 mphOvercast
2:54 AM29.3 °F21.9 °F74 %29.56 in10.0 miWest (280°)27.6 mph42.6 mphOvercast
3:14 AM28.9 °F20.8 °F72 %29.58 in10.0 miWest (280°)29.9 mph43.7 mphOvercast
3:34 AM28.2 °F21.0 °F74 %29.59 in10.0 miWNW (290°)28.8 mph47.2 mphOvercast
3:54 AM27.5 °F18.5 °F69 %29.60 in10.0 miWest (270°)32.2 mph42.6 mphOvercast
4:13 AM27.1 °F18.1 °F69 %29.61 in10.0 miWest (280°)27.6 mph40.3 mphOvercast
4:34 AM26.6 °F19.2 °F74 %29.61 in7.0 miWNW (290°)25.3 mph36.8 mphOvercast
4:54 AM26.4 °F16.5 °F66 %29.63 in10.0 miWest (270°)25.3 mph40.3 mphOvercast
5:14 AM25.7 °F15.8 °F66 %29.65 in7.0 miWest (280°)28.8 mph39.1 mphOvercast
5:34 AM24.8 °F14.2 °F64 %29.66 in10.0 miWest (270°)29.9 mph42.6 mphOvercast
5:54 AM23.9 °F14.5 °F67 %29.68 in5.0 miWNW (290°)19.6 mph40.3 mphOvercast
6:14 AM23.9 °F14.5 °F67 %29.67 in10.0 miCalmOvercast
6:34 AM24.3 °F15.8 °F70 %29.69 in7.0 miCalmOvercast
6:54 AM23.5 °F18.1 °F80 %29.70 in2.5 miCalmOvercast
7:14 AM23.7 °F18.7 °F81 %29.70 in2.0 miCalmOvercast
7:34 AM23.9 °F16.0 °F72 %29.71 in10.0 miCalmOvercast
7:54 AM23.7 °F16.2 °F73 %29.72 in5.0 miCalmOvercast
8:14 AM23.4 °F16.9 °F76 %29.73 in1.2 miCalmOvercast
8:34 AM22.6 °F15.4 °F74 %29.74 in7.0 miCalmOvercast
8:54 AM21.2 °F14.9 °F77 %29.76 in1.5 miCalmOvercast
9:14 AM21.6 °F12.9 °F69 %29.78 in4.0 miCalmOvercast
9:34 AM21.9 °F11.3 °F64 %29.78 in10.0 miCalmOvercast
9:54 AM22.6 °F12.2 °F64 %29.79 in10.0 miCalmOvercast
10:19 AM22.1 °F14.9 °F74 %29.80 in2.5 miCalmOvercast
10:34 AM21.9 °F15.8 °F77 %29.82 in1.8 miCalmOvercast
10:54 AM23.0 °F11.8 °F62 %29.83 in10.0 miWest (270°)20.7 mph33.4 mphOvercast
11:14 AM23.0 °F10.4 °F59 %29.83 in10.0 miWest (280°)18.4 mph31.1 mphOvercast
11:34 AM23.0 °F12.0 °F63 %29.84 in7.0 miWest (280°)13.8 mph33.4 mphOvercast
11:54 AM24.1 °F13.3 °F63 %29.83 in10.0 miWest (270°)21.9 mph27.6 mphOvercast
12:14 PM24.6 °F12.4 °F60 %29.83 in10.0 miWNW (290°)27.6 mph34.5 mphOvercast
12:34 PM23.4 °F15.6 °F72 %29.84 in1.8 miWest (270°)19.6 mph25.3 mphOvercast
12:54 PM23.5 °F17.6 °F78 %29.83 in2.5 miWest (270°)13.8 mph17.3 mphOvercast
1:14 PM23.7 °F18.7 °F81 %29.83 in1.0 miWest (260°)10.4 mph16.1 mphOvercast
1:34 PM24.8 °F18.0 °F75 %29.82 in5.0 miWest (270°)12.7 mph23.0 mphOvercast
1:54 PM25.3 °F18.3 °F75 %29.82 in4.0 miWest (260°)17.3 mph23.0 mphOvercast
2:14 PM25.9 °F19.6 °F77 %29.82 in7.0 miWSW (240°)11.5 mphOvercast
2:34 PM25.5 °F20.3 °F81 %29.82 in1.0 miCalmOvercast
2:54 PM25.3 °F21.4 °F85 %29.82 in0.5 miWest (270°)15.0 mphOvercast
3:14 PM25.9 °F19.0 °F75 %29.82 in10.0 miWest (280°)19.6 mphOvercast
3:34 PM26.1 °F16.3 °F67 %29.83 in5.0 miWest (280°)20.7 mph27.6 mphMostly Cloudy
3:54 PM25.5 °F16.9 °F70 %29.83 in3.0 miWest (280°)21.9 mph27.6 mphMostly Cloudy
4:14 PM25.5 °F17.4 °F71 %29.83 in10.0 miWest (270°)15.0 mph20.7 mphScattered Clouds
4:34 PM25.3 °F16.3 °F69 %29.84 in5.0 miWest (280°)19.6 mph24.2 mphMostly Cloudy
4:54 PM25.5 °F16.7 °F69 %29.84 in7.0 miWest (280°)19.6 mph29.9 mphOvercast
5:14 PM24.6 °F17.2 °F74 %29.84 in3.0 miCalmOvercast
5:34 PM24.4 °F16.5 °F72 %29.84 in5.0 miCalmOvercast
5:54 PM23.7 °F14.9 °F69 %29.84 in10.0 miCalmMostly Cloudy
6:14 PM23.5 °F14.4 °F68 %29.85 in10.0 miCalmScattered Clouds
6:34 PM23.9 °F14.5 °F67 %29.85 in10.0 miCalmMostly Cloudy
6:54 PM23.9 °F14.2 °F66 %29.85 in10.0 miCalmOvercast
7:14 PM23.9 °F14.0 °F66 %29.86 in10.0 miCalmOvercast
7:34 PM23.7 °F14.5 °F68 %29.87 in10.0 miCalmOvercast
7:54 PM23.7 °F15.3 °F70 %29.88 in5.0 miCalmOvercast
8:14 PM22.6 °F16.0 °F76 %29.88 in7.0 miCalmOvercast
8:34 PM22.8 °F13.6 °F68 %29.88 in10.0 miCalmOvercast
8:54 PM22.1 °F14.5 °F73 %29.88 in7.0 miCalmOvercast
9:14 PM21.7 °F14.2 °F73 %29.88 in7.0 miCalmOvercast
9:34 PM21.0 °F14.0 °F74 %29.89 in5.0 miCalmOvercast
9:54 PM20.7 °F14.7 °F78 %29.89 in3.0 miCalmOvercast
10:14 PM19.9 °F13.1 °F75 %29.89 in7.0 miCalmOvercast
10:34 PM19.4 °F14.0 °F80 %29.89 in2.5 miCalmOvercast
10:54 PM18.9 °F12.9 °F78 %29.90 in4.0 miCalmOvercast
11:14 PM17.4 °F10.9 °F76 %29.90 in5.0 miCalmOvercast
11:34 PM17.1 °F9.1 °F71 %29.92 in4.0 miCalmOvercast
11:54 PM16.5 °F7.9 °F69 %29.92 in10.0 miCalmOvercast
Hourly data recorded from KMRT, located miles away from Irwin, Ohio







STORIES FROM OUR PARTNERS